Tracking 29489 objects as of 9-Sep-2024
HD Live streaming from Space Station
objects crossing your sky now

FENGYUN 1C DEB

Track FENGYUN 1C DEB now!
10-day predictions


NORAD ID: 31820
Int'l Code: 1999-025CHJ
Perigee: 517.9 km
Apogee: 802.8 km
Inclination: 98.9 °
Period: 97.8 minutes
Semi major axis: 7031 km
RCS: 0.0132 m2 (small)
Launch date: May 10, 1999
Source: People's Republic of China (PRC)
Launch site: Taiyaun Space Center, China (TSC)

Note: This is SATELLITE DEBRIS
Your satellite tracking list
Your tracking list is empty




NASA's NSSDC Master Catalog

Two Line Element Set (TLE):
1 31820U 99025CHJ 24252.54904010  .00016889  00000-0  19258-2 0  9996
2 31820  98.9232   2.8108 0202564  30.8179 330.4735 14.72468451914354
Source of the keplerian elements: AFSPC